ADB75T EKCH-EGLL

Flight info

Callsign ADB75T
Flight time 1h 29m
Altitude 32000
Route LANGO3D LANGO DCT ABNED L980 LOGAN LOGAN2H
Aircraft A225/J-SCDFGHIRUWXYZ/LB1

Departure

Time 2026-04-22 15:25
Airport Copenhagen Kastrup Airport (EKCH)

Arrival

Time 2026-04-22 16:54
Airport London Heathrow Airport (EGLL)
Time Latitude Longitude Altitude Speed Heading
2026-04-22 14:55 55.61718 12.67191 33 ft 0 kts 79°
2026-04-22 15:12 55.61717 12.67184 33 ft 2 kts 78°
2026-04-22 15:12 55.61714 12.67156 31 ft 2 kts 78°
2026-04-22 15:12 55.61710 12.67127 31 ft 2 kts 78°
2026-04-22 15:13 55.61707 12.67098 32 ft 2 kts 80°
2026-04-22 15:13 55.61701 12.67072 31 ft 2 kts 46°
2026-04-22 15:13 55.61688 12.67054 30 ft 2 kts 17°
2026-04-22 15:13 55.61672 12.67049 31 ft 2 kts 14°
2026-04-22 15:14 55.61659 12.67046 30 ft 1 kts 353°
2026-04-22 15:14 55.61658 12.67046 30 ft 0 kts 352°
2026-04-22 15:17 55.61659 12.67046 30 ft 1 kts 352°
2026-04-22 15:17 55.61674 12.67042 30 ft 4 kts 352°
2026-04-22 15:17 55.61708 12.67033 32 ft 6 kts 348°
2026-04-22 15:17 55.61755 12.67016 33 ft 8 kts 348°
2026-04-22 15:18 55.61819 12.66992 33 ft 11 kts 348°
2026-04-22 15:18 55.61879 12.66940 33 ft 8 kts 301°
2026-04-22 15:18 55.61885 12.66865 33 ft 7 kts 265°
2026-04-22 15:18 55.61876 12.66763 33 ft 10 kts 258°
2026-04-22 15:19 55.61859 12.66614 33 ft 14 kts 259°
2026-04-22 15:19 55.61825 12.66440 33 ft 13 kts 213°
2026-04-22 15:19 55.61730 12.66376 33 ft 16 kts 206°
2026-04-22 15:19 55.61645 12.66224 33 ft 18 kts 225°
2026-04-22 15:20 55.61554 12.66251 33 ft 15 kts 130°
2026-04-22 15:20 55.61487 12.66424 33 ft 19 kts 123°
2026-04-22 15:20 55.61406 12.66640 33 ft 23 kts 122°
2026-04-22 15:20 55.61328 12.66867 34 ft 17 kts 120°
2026-04-22 15:21 55.61304 12.67005 34 ft 5 kts 125°
2026-04-22 15:21 55.61296 12.67014 35 ft 1 kts 157°
2026-04-22 15:21 55.61289 12.67015 35 ft 1 kts 186°
2026-04-22 15:21 55.61280 12.67004 35 ft 3 kts 229°
2026-04-22 15:22 55.61286 12.66956 34 ft 8 kts 310°
2026-04-22 15:22 55.61316 12.66886 34 ft 0 kts 304°
2026-04-22 15:24 55.61407 12.66645 33 ft 54 kts 303°
2026-04-22 15:24 55.61726 12.65779 36 ft 111 kts 303°
2026-04-22 15:25 55.62223 12.64432 210 ft 141 kts 303°
2026-04-22 15:25 55.62729 12.63012 835 ft 131 kts 304°
2026-04-22 15:25 55.63183 12.61719 1581 ft 124 kts 305°
2026-04-22 15:25 55.63640 12.60318 2033 ft 135 kts 306°
2026-04-22 15:26 55.64114 12.58925 2644 ft 132 kts 298°
2026-04-22 15:26 55.64242 12.57204 3041 ft 146 kts 285°
2026-04-22 15:26 55.64469 12.55463 3583 ft 145 kts 293°
2026-04-22 15:26 55.64778 12.53774 4078 ft 145 kts 296°
2026-04-22 15:27 55.65101 12.52080 4652 ft 145 kts 294°
2026-04-22 15:27 55.65464 12.50441 5120 ft 146 kts 301°
2026-04-22 15:27 55.65929 12.48823 5547 ft 148 kts 303°
2026-04-22 15:27 55.66393 12.47203 6043 ft 148 kts 300°
2026-04-22 15:28 55.66736 12.45455 6464 ft 153 kts 294°
2026-04-22 15:28 55.67088 12.43653 6832 ft 156 kts 296°
2026-04-22 15:28 55.67458 12.41905 7373 ft 147 kts 301°
2026-04-22 15:28 55.67910 12.40189 7599 ft 165 kts 301°
2026-04-22 15:29 55.68180 12.37962 7689 ft 207 kts 274°
2026-04-22 15:29 55.67765 12.35379 7953 ft 240 kts 247°
2026-04-22 15:29 55.66622 12.32967 8231 ft 275 kts 222°
2026-04-22 15:30 55.63053 12.29249 9293 ft 313 kts 215°
2026-04-22 15:30 55.61316 12.26849 9976 ft 321 kts 226°
2026-04-22 15:30 55.59735 12.23993 10706 ft 328 kts 229°
2026-04-22 15:30 55.58132 12.21065 11428 ft 335 kts 226°
2026-04-22 15:31 55.56391 12.18239 12091 ft 344 kts 223°
2026-04-22 15:31 55.54579 12.15400 12689 ft 353 kts 224°
2026-04-22 15:31 55.52791 12.12464 13330 ft 358 kts 225°
2026-04-22 15:31 55.50972 12.09411 14014 ft 363 kts 225°
2026-04-22 15:32 55.49117 12.06357 14639 ft 367 kts 224°
2026-04-22 15:32 55.47233 12.03307 15264 ft 369 kts 223°
2026-04-22 15:32 55.45341 12.00230 15869 ft 372 kts 223°
2026-04-22 15:32 55.43574 11.97334 16379 ft 376 kts 223°
2026-04-22 15:33 55.41653 11.94189 16956 ft 379 kts 223°
2026-04-22 15:33 55.39713 11.91034 17543 ft 381 kts 223°
2026-04-22 15:33 55.37762 11.87870 18134 ft 382 kts 223°
2026-04-22 15:33 55.35828 11.84732 18680 ft 384 kts 222°
2026-04-22 15:34 55.33866 11.81552 19193 ft 385 kts 222°
2026-04-22 15:34 55.31898 11.78365 19691 ft 386 kts 222°
2026-04-22 15:34 55.29921 11.75170 20184 ft 386 kts 222°
2026-04-22 15:34 55.27942 11.71976 20675 ft 387 kts 222°
2026-04-22 15:35 55.26628 11.69860 21007 ft 387 kts 222°
2026-04-22 15:35 55.24249 11.65129 21588 ft 389 kts 236°
2026-04-22 15:35 55.22799 11.61124 22052 ft 389 kts 238°
2026-04-22 15:35 55.21404 11.57132 22520 ft 389 kts 238°
2026-04-22 15:36 55.19931 11.53152 22978 ft 390 kts 236°
2026-04-22 15:36 55.18423 11.49195 23431 ft 391 kts 236°
2026-04-22 15:36 55.16943 11.45219 23870 ft 391 kts 237°
2026-04-22 15:36 55.15469 11.41195 24237 ft 392 kts 236°
2026-04-22 15:37 55.13985 11.37194 24569 ft 394 kts 236°
2026-04-22 15:37 55.12479 11.33182 24879 ft 395 kts 235°
2026-04-22 15:37 55.10973 11.29158 25199 ft 397 kts 235°
2026-04-22 15:37 55.09484 11.25165 25498 ft 399 kts 235°
2026-04-22 15:38 55.07966 11.21104 25790 ft 400 kts 234°
2026-04-22 15:38 55.04898 11.12944 26398 ft 404 kts 234°
2026-04-22 15:38 55.03354 11.08840 26714 ft 405 kts 234°
2026-04-22 15:39 55.01805 11.04731 27021 ft 406 kts 233°
2026-04-22 15:39 55.00249 11.00611 27308 ft 408 kts 233°
2026-04-22 15:39 54.98682 10.96473 27582 ft 410 kts 233°
2026-04-22 15:39 54.97131 10.92380 27861 ft 411 kts 233°
2026-04-22 15:40 54.95553 10.88222 28141 ft 413 kts 232°
2026-04-22 15:40 54.94010 10.84000 28389 ft 415 kts 236°
2026-04-22 15:40 54.92537 10.79655 28648 ft 417 kts 235°
2026-04-22 15:40 54.91027 10.75348 28915 ft 418 kts 234°
2026-04-22 15:41 54.89512 10.71020 29163 ft 420 kts 234°
2026-04-22 15:41 54.88008 10.66650 29410 ft 422 kts 235°
2026-04-22 15:41 54.86501 10.62270 29672 ft 424 kts 234°
2026-04-22 15:41 54.84971 10.57881 29891 ft 425 kts 234°
2026-04-22 15:42 54.83453 10.53544 30140 ft 427 kts 234°
2026-04-22 15:42 54.81912 10.49125 30374 ft 428 kts 234°
2026-04-22 15:42 54.80372 10.44704 30575 ft 430 kts 234°
2026-04-22 15:42 54.78820 10.40273 30773 ft 431 kts 233°
2026-04-22 15:43 54.77261 10.35834 30968 ft 432 kts 233°
2026-04-22 15:43 54.75695 10.31380 31175 ft 433 kts 233°
2026-04-22 15:43 54.74127 10.26921 31351 ft 434 kts 233°
2026-04-22 15:43 54.72552 10.22454 31569 ft 435 kts 233°
2026-04-22 15:44 54.70995 10.18050 31779 ft 435 kts 233°
2026-04-22 15:44 54.69415 10.13587 31984 ft 436 kts 233°
2026-04-22 15:44 54.67826 10.09108 32099 ft 438 kts 233°
2026-04-22 15:44 54.66226 10.04604 32251 ft 441 kts 233°
2026-04-22 15:45 54.62968 9.95465 32195 ft 453 kts 233°
2026-04-22 15:45 54.59623 9.86105 32177 ft 464 kts 234°
2026-04-22 15:46 54.56220 9.76625 32179 ft 473 kts 234°
2026-04-22 15:46 54.52722 9.66916 32183 ft 479 kts 234°
2026-04-22 15:47 54.49228 9.57251 32182 ft 474 kts 234°
2026-04-22 15:47 54.45755 9.47699 32183 ft 473 kts 234°
2026-04-22 15:48 54.42271 9.38135 32187 ft 472 kts 234°
2026-04-22 15:48 54.38779 9.28599 32187 ft 471 kts 234°
2026-04-22 15:49 54.35293 9.19108 32190 ft 470 kts 234°
2026-04-22 15:49 54.31801 9.09644 32197 ft 469 kts 235°
2026-04-22 15:50 54.28338 9.00287 32202 ft 468 kts 235°
2026-04-22 15:50 54.24848 8.90900 32206 ft 469 kts 235°
2026-04-22 15:51 54.21311 8.81420 32207 ft 475 kts 235°
2026-04-22 15:51 54.17772 8.71963 32219 ft 472 kts 235°
2026-04-22 15:52 54.14256 8.62613 32222 ft 471 kts 235°
2026-04-22 15:52 54.10715 8.53226 32227 ft 470 kts 236°
2026-04-22 15:53 54.07171 8.43872 32228 ft 470 kts 236°
2026-04-22 15:53 54.03626 8.34545 32234 ft 469 kts 236°
2026-04-22 15:54 54.00103 8.25312 32237 ft 468 kts 236°
2026-04-22 15:54 53.96553 8.16042 32241 ft 468 kts 236°
2026-04-22 15:55 53.92999 8.06797 32239 ft 467 kts 236°
2026-04-22 15:55 53.89442 7.97577 32245 ft 467 kts 236°
2026-04-22 15:56 53.85906 7.88448 32243 ft 466 kts 236°
2026-04-22 15:56 53.82343 7.79280 32244 ft 466 kts 236°
2026-04-22 15:57 53.78776 7.70136 32243 ft 465 kts 236°
2026-04-22 15:57 53.75204 7.61014 32242 ft 465 kts 236°
2026-04-22 15:58 53.71629 7.51914 32239 ft 465 kts 236°
2026-04-22 15:58 53.68073 7.42897 32238 ft 464 kts 236°
2026-04-22 15:59 53.64494 7.33855 32238 ft 463 kts 236°
2026-04-22 15:59 53.60910 7.24834 32234 ft 463 kts 236°
2026-04-22 16:00 53.57347 7.15895 32234 ft 462 kts 237°
2026-04-22 16:00 53.53756 7.06919 32229 ft 462 kts 237°
2026-04-22 16:01 53.50165 6.97974 32231 ft 462 kts 237°
2026-04-22 16:01 53.46573 6.89058 32228 ft 462 kts 237°
2026-04-22 16:02 53.42965 6.80138 32226 ft 461 kts 237°
2026-04-22 16:02 53.39361 6.71255 32225 ft 461 kts 237°
2026-04-22 16:03 53.35771 6.62439 32236 ft 460 kts 237°
2026-04-22 16:03 53.32161 6.53603 32230 ft 460 kts 237°
2026-04-22 16:04 53.28544 6.44784 32235 ft 459 kts 237°
2026-04-22 16:04 53.24924 6.35986 32231 ft 459 kts 237°
2026-04-22 16:05 53.21304 6.27220 32238 ft 459 kts 236°
2026-04-22 16:05 53.17701 6.18523 32237 ft 458 kts 236°
2026-04-22 16:06 53.14063 6.09774 32253 ft 458 kts 236°
2026-04-22 16:06 53.10444 6.01100 32254 ft 458 kts 236°
2026-04-22 16:07 53.06829 5.92466 32258 ft 457 kts 236°
2026-04-22 16:07 53.03193 5.83808 32254 ft 457 kts 236°
2026-04-22 16:08 52.99550 5.75167 32254 ft 456 kts 236°
2026-04-22 16:08 52.95902 5.66542 32241 ft 456 kts 236°
2026-04-22 16:09 52.92254 5.57947 32237 ft 456 kts 236°
2026-04-22 16:09 52.88622 5.49416 32229 ft 456 kts 236°
2026-04-22 16:10 52.84963 5.40853 32231 ft 456 kts 236°
2026-04-22 16:10 52.81301 5.32310 32212 ft 455 kts 236°
2026-04-22 16:11 52.77635 5.23786 32226 ft 455 kts 236°
2026-04-22 16:11 52.73962 5.15275 32226 ft 455 kts 236°
2026-04-22 16:12 52.70315 5.06854 32232 ft 454 kts 236°
2026-04-22 16:12 52.66634 4.98382 32231 ft 454 kts 236°
2026-04-22 16:13 52.62957 4.89947 32237 ft 454 kts 236°
2026-04-22 16:13 52.59271 4.81518 32226 ft 453 kts 236°
2026-04-22 16:14 52.55605 4.73163 32219 ft 453 kts 236°
2026-04-22 16:14 52.51912 4.64774 32219 ft 453 kts 236°
2026-04-22 16:15 52.48219 4.56413 32221 ft 453 kts 236°
2026-04-22 16:15 52.44517 4.48059 32210 ft 452 kts 236°
2026-04-22 16:16 52.40812 4.39725 32222 ft 452 kts 236°
2026-04-22 16:16 52.37129 4.31467 32216 ft 452 kts 236°
2026-04-22 16:17 52.33417 4.23172 32223 ft 452 kts 236°
2026-04-22 16:17 52.29704 4.14901 32215 ft 452 kts 236°
2026-04-22 16:18 52.25979 4.06630 32222 ft 452 kts 236°
2026-04-22 16:18 52.22277 3.98437 32209 ft 451 kts 236°
2026-04-22 16:19 52.18548 3.90208 32211 ft 451 kts 236°
2026-04-22 16:19 52.14812 3.81994 32206 ft 451 kts 236°
2026-04-22 16:20 52.11071 3.73793 32216 ft 451 kts 236°
2026-04-22 16:20 52.07349 3.65660 32206 ft 451 kts 236°
2026-04-22 16:21 52.03603 3.57501 32209 ft 451 kts 236°
2026-04-22 16:21 51.99852 3.49357 32202 ft 450 kts 236°
2026-04-22 16:22 51.94217 3.37170 32194 ft 450 kts 236°
2026-04-22 16:23 51.88598 3.25074 32192 ft 449 kts 236°
2026-04-22 16:23 51.85285 3.16611 32162 ft 443 kts 252°
2026-04-22 16:24 51.84527 3.11837 32163 ft 436 kts 265°
2026-04-22 16:24 51.83983 3.02098 32192 ft 436 kts 268°
2026-04-22 16:25 51.83300 2.92429 32189 ft 435 kts 266°
2026-04-22 16:25 51.82355 2.77859 32188 ft 434 kts 267°
2026-04-22 16:26 51.81684 2.68172 32197 ft 434 kts 267°
2026-04-22 16:26 51.81030 2.58494 32189 ft 433 kts 267°
2026-04-22 16:27 51.80354 2.48834 32199 ft 432 kts 266°
2026-04-22 16:27 51.79685 2.39268 32192 ft 431 kts 267°
2026-04-22 16:28 51.79000 2.29655 32197 ft 430 kts 266°
2026-04-22 16:28 51.78365 2.20074 32190 ft 428 kts 269°
2026-04-22 16:29 51.77778 2.10502 32195 ft 428 kts 267°
2026-04-22 16:29 51.77219 2.01023 32136 ft 427 kts 268°
2026-04-22 16:30 51.77037 1.97788 31914 ft 429 kts 268°
2026-04-22 16:30 51.76644 1.91427 31164 ft 430 kts 268°
2026-04-22 16:30 51.76342 1.86639 30560 ft 428 kts 268°
2026-04-22 16:30 51.76055 1.81915 29853 ft 417 kts 268°
2026-04-22 16:31 51.75773 1.77259 29143 ft 416 kts 268°
2026-04-22 16:31 51.75486 1.72627 28462 ft 414 kts 268°
2026-04-22 16:31 51.75195 1.68024 27786 ft 410 kts 267°
2026-04-22 16:31 51.74907 1.63478 27123 ft 404 kts 267°
2026-04-22 16:32 51.74629 1.59058 26482 ft 399 kts 267°
2026-04-22 16:32 51.74348 1.54623 25856 ft 395 kts 267°
2026-04-22 16:32 51.74067 1.50224 25241 ft 393 kts 266°
2026-04-22 16:32 51.73785 1.45848 24658 ft 392 kts 266°
2026-04-22 16:33 51.73503 1.41485 24058 ft 391 kts 266°
2026-04-22 16:33 51.73219 1.37119 23393 ft 391 kts 265°
2026-04-22 16:33 51.72933 1.32772 22710 ft 389 kts 265°
2026-04-22 16:33 51.72648 1.28436 22043 ft 388 kts 265°
2026-04-22 16:34 51.72367 1.24186 21398 ft 386 kts 265°
2026-04-22 16:34 51.72082 1.19903 20763 ft 383 kts 264°
2026-04-22 16:34 51.71796 1.15644 20136 ft 381 kts 264°
2026-04-22 16:34 51.71511 1.11404 19511 ft 379 kts 264°
2026-04-22 16:35 51.71225 1.07185 18922 ft 377 kts 264°
2026-04-22 16:35 51.70968 1.03411 18354 ft 376 kts 263°
2026-04-22 16:35 51.70682 0.99236 17677 ft 374 kts 263°
2026-04-22 16:35 51.70395 0.95074 17019 ft 372 kts 263°
2026-04-22 16:36 51.70111 0.90945 16390 ft 369 kts 263°
2026-04-22 16:36 51.69923 0.88227 15967 ft 368 kts 263°
2026-04-22 16:36 51.69638 0.84138 15348 ft 366 kts 263°
2026-04-22 16:36 51.69353 0.80086 14737 ft 363 kts 263°
2026-04-22 16:37 51.68977 0.74752 13923 ft 360 kts 263°
2026-04-22 16:37 51.68694 0.70749 13261 ft 358 kts 263°
2026-04-22 16:37 51.68411 0.66778 12601 ft 356 kts 263°
2026-04-22 16:37 51.68129 0.62844 12103 ft 350 kts 263°
2026-04-22 16:38 51.67944 0.60268 11704 ft 348 kts 263°
2026-04-22 16:38 51.67667 0.56425 11219 ft 343 kts 263°
2026-04-22 16:38 51.67391 0.52639 10742 ft 339 kts 263°
2026-04-22 16:38 51.67117 0.48869 10323 ft 336 kts 263°
2026-04-22 16:39 51.66847 0.45168 9946 ft 329 kts 262°
2026-04-22 16:39 51.66581 0.41572 9660 ft 319 kts 262°
2026-04-22 16:39 51.66322 0.38064 9329 ft 313 kts 262°
2026-04-22 16:39 51.66069 0.34620 8986 ft 307 kts 262°
2026-04-22 16:40 51.65818 0.31228 8572 ft 305 kts 262°
2026-04-22 16:40 51.65562 0.27815 8049 ft 308 kts 262°
2026-04-22 16:40 51.65069 0.21263 8186 ft 297 kts 262°
2026-04-22 16:41 51.64819 0.17946 8208 ft 304 kts 262°
2026-04-22 16:41 51.64576 0.14564 8224 ft 303 kts 264°
2026-04-22 16:41 51.64370 0.11187 8212 ft 304 kts 261°
2026-04-22 16:41 51.63934 0.07864 8204 ft 304 kts 255°
2026-04-22 16:42 51.63450 0.04561 8211 ft 304 kts 257°
2026-04-22 16:42 51.63076 0.01223 8207 ft 304 kts 260°
2026-04-22 16:42 51.62760 -0.02141 8215 ft 304 kts 261°
2026-04-22 16:42 51.62469 -0.05473 8157 ft 298 kts 261°
2026-04-22 16:43 51.62181 -0.08796 7679 ft 300 kts 261°
2026-04-22 16:43 51.61893 -0.12105 7400 ft 298 kts 261°
2026-04-22 16:43 51.61609 -0.15380 7252 ft 289 kts 261°
2026-04-22 16:43 51.61333 -0.18553 7307 ft 289 kts 261°
2026-04-22 16:44 51.61051 -0.21771 7365 ft 297 kts 261°
2026-04-22 16:44 51.60764 -0.25076 7342 ft 297 kts 261°
2026-04-22 16:44 51.60475 -0.28358 7353 ft 298 kts 261°
2026-04-22 16:44 51.60187 -0.31662 7242 ft 297 kts 261°
2026-04-22 16:45 51.59901 -0.34907 7229 ft 287 kts 261°
2026-04-22 16:45 51.59629 -0.38010 7211 ft 273 kts 261°
2026-04-22 16:45 51.59369 -0.40953 7216 ft 260 kts 259°
2026-04-22 16:45 51.58954 -0.43763 7227 ft 258 kts 252°
2026-04-22 16:46 51.58431 -0.46545 7258 ft 262 kts 251°
2026-04-22 16:46 51.57903 -0.49310 7274 ft 257 kts 251°
2026-04-22 16:46 51.57377 -0.52063 7255 ft 258 kts 251°
2026-04-22 16:46 51.56851 -0.54821 7234 ft 256 kts 251°
2026-04-22 16:47 51.56334 -0.57535 6958 ft 256 kts 251°
2026-04-22 16:47 51.55820 -0.60240 6589 ft 255 kts 251°
2026-04-22 16:47 51.55302 -0.62958 6282 ft 254 kts 251°
2026-04-22 16:47 51.54787 -0.65667 5922 ft 253 kts 251°
2026-04-22 16:48 51.54273 -0.68370 5624 ft 252 kts 251°
2026-04-22 16:48 51.53758 -0.71055 5299 ft 252 kts 250°
2026-04-22 16:48 51.53275 -0.73551 5022 ft 250 kts 250°
2026-04-22 16:48 51.52412 -0.75904 4656 ft 244 kts 218°
2026-04-22 16:49 51.50964 -0.77072 4296 ft 230 kts 182°
2026-04-22 16:49 51.49473 -0.76651 4007 ft 213 kts 144°
2026-04-22 16:49 51.48447 -0.75080 3698 ft 206 kts 124°
2026-04-22 16:49 51.47791 -0.73101 3374 ft 200 kts 104°
2026-04-22 16:50 51.47589 -0.70902 3026 ft 200 kts 90°
2026-04-22 16:50 51.47614 -0.68880 2670 ft 203 kts 86°
2026-04-22 16:50 51.47672 -0.66586 2261 ft 207 kts 87°
2026-04-22 16:50 51.47675 -0.64589 1955 ft 210 kts 89°
2026-04-22 16:51 51.47668 -0.62266 1582 ft 199 kts 88°
2026-04-22 16:51 51.47675 -0.60251 1341 ft 168 kts 88°
2026-04-22 16:51 51.47687 -0.58510 1096 ft 143 kts 87°
2026-04-22 16:51 51.47694 -0.57046 974 ft 124 kts 88°
2026-04-22 16:52 51.47701 -0.55680 853 ft 120 kts 89°
2026-04-22 16:52 51.47719 -0.54366 812 ft 119 kts 87°
2026-04-22 16:52 51.47725 -0.53047 685 ft 120 kts 88°
2026-04-22 16:52 51.47740 -0.51708 513 ft 120 kts 88°
2026-04-22 16:53 51.47750 -0.50369 360 ft 119 kts 90°
2026-04-22 16:53 51.47750 -0.49051 200 ft 119 kts 91°
2026-04-22 16:53 51.47756 -0.47739 104 ft 114 kts 91°
2026-04-22 16:53 51.47756 -0.46584 102 ft 93 kts 90°
2026-04-22 16:54 51.47759 -0.45670 97 ft 71 kts 89°
2026-04-22 16:54 51.47761 -0.44977 101 ft 58 kts 90°
2026-04-22 16:54 51.47731 -0.44508 101 ft 34 kts 109°
2026-04-22 16:54 51.47662 -0.44274 100 ft 13 kts 129°
2026-04-22 16:55 51.47637 -0.44242 100 ft 0 kts 151°
2026-04-22 16:56 51.47633 -0.44239 99 ft 2 kts 151°
2026-04-22 16:56 51.47610 -0.44214 98 ft 5 kts 139°
2026-04-22 16:56 51.47594 -0.44179 100 ft 2 kts 110°
2026-04-22 16:57 51.47591 -0.44151 98 ft 3 kts 98°
2026-04-22 16:57 51.47585 -0.44103 99 ft 3 kts 117°
2026-04-22 16:57 51.47576 -0.44087 98 ft 2 kts 137°
2026-04-22 16:57 51.47567 -0.44078 100 ft 1 kts 154°
2026-04-22 16:58 51.47550 -0.44069 99 ft 5 kts 163°
2026-04-22 16:58 51.47523 -0.44044 100 ft 3 kts 135°
2026-04-22 16:58 51.47522 -0.44043 100 ft 0 kts 135°
2026-04-22 16:58 51.47521 -0.44041 100 ft 0 kts 138°
2026-04-22 16:59 51.47520 -0.44040 100 ft 0 kts 143°
2026-04-22 16:59 51.47518 -0.44039 100 ft 0 kts 151°
2026-04-22 16:59 51.47513 -0.44037 100 ft 1 kts 171°
2026-04-22 16:59 51.47507 -0.44039 101 ft 1 kts 194°
2026-04-22 17:00 51.47502 -0.44044 101 ft 1 kts 217°
2026-04-22 17:00 51.47501 -0.44177 98 ft 20 kts 272°
2026-04-22 17:00 51.47503 -0.44408 98 ft 22 kts 270°
2026-04-22 17:01 51.47506 -0.44654 99 ft 23 kts 273°
2026-04-22 17:01 51.47509 -0.44908 99 ft 25 kts 271°
2026-04-22 17:01 51.47508 -0.45172 99 ft 19 kts 269°
2026-04-22 17:01 51.47508 -0.45387 99 ft 20 kts 269°
2026-04-22 17:02 51.47507 -0.45608 99 ft 20 kts 270°
2026-04-22 17:02 51.47517 -0.45842 98 ft 22 kts 272°
2026-04-22 17:02 51.47516 -0.46068 96 ft 20 kts 269°
2026-04-22 17:02 51.47516 -0.46292 98 ft 20 kts 270°
2026-04-22 17:03 51.47515 -0.46518 99 ft 20 kts 270°
2026-04-22 17:03 51.47511 -0.46712 99 ft 16 kts 254°
2026-04-22 17:03 51.47493 -0.46858 99 ft 11 kts 255°
2026-04-22 17:03 51.47464 -0.46895 99 ft 4 kts 187°
2026-04-22 17:04 51.47420 -0.46886 97 ft 10 kts 168°
2026-04-22 17:04 51.47336 -0.46872 99 ft 11 kts 185°
2026-04-22 17:04 51.47295 -0.46911 100 ft 2 kts 248°
2026-04-22 17:04 51.47292 -0.46935 99 ft 2 kts 268°
2026-04-22 17:05 51.47291 -0.46982 100 ft 7 kts 269°
2026-04-22 17:05 51.47290 -0.47022 99 ft 0 kts 269°